Snowfall_Accumulation
nan nan nan nan nan nan nan nan nan nan nan nan nan nan nan nan nan 0.0 0.0 0.0 0.2 1.6 0.1 0.0 0.0 0.0 0.0 0.0 1.9 0.0 2.8 0.2 0.7 1.5 0.7 0.5 0.2 0.0 0.0 0.0 0.0 0.1 0.2 0.6 0.2 0.3 1.1 0.0 0.0 0.0 0.0 0.0 0.0 0.0
nan nan nan nan nan nan nan nan nan nan nan nan nan nan nan nan nan nan 0.0 0.0 0.0 0.2 0.1 0.0 0.0 0.0 0.0 0.0 0.1 0.2 0.5 0.7 0.4 0.8 0.1 0.1 0.3 0.1 0.0 0.2 0.0 0.2 0.0 0.0 0.0 0.0 0.0 0.0 0.0 0.0 0.0 0.0 0.0 0.0
nan nan nan nan nan nan nan nan nan nan nan nan nan nan nan nan nan nan 0.0 0.0 0.0 0.4 0.1 0.0 0.0 0.0 0.0 0.0 0.0 2.6 0.0 0.0 0.0 0.0 1.0 0.0 0.3 0.0 0.1 0.0 0.0 0.0 0.0 0.0 0.0 0.0 0.0 0.0 0.0 0.0 0.0 0.0 0.0 0.0
nan nan nan nan nan nan nan nan nan nan nan nan nan nan nan nan nan nan 0.0 0.0 0.0 0.1 2.0 0.0 0.0 0.0 0.0 0.0 0.0 0.0 0.0 0.0 0.0 0.2 0.9 0.3 0.2 0.0 0.0 0.0 0.0 0.0 0.0 0.0 0.0 0.0 0.0 0.0 0.0 0.0 0.0 0.0 0.0 0.0
nan nan nan nan nan nan nan nan nan nan nan nan nan nan nan nan nan nan 0.0 0.0 0.0 0.5 1.1 0.2 0.0 0.0 0.0 0.0 0.0 0.0 0.0 0.0 1.3 2.1 1.5 0.6 0.0 0.1 0.0 0.0 0.0 0.0 0.0 0.0 0.0 0.0 0.0 0.0 0.0 0.0 0.0 0.0 0.0 0.0
nan nan nan nan nan nan nan nan nan nan nan nan nan nan nan nan nan 0.0 1.3 0.0 0.0 0.0 1.7 0.7 0.0 0.0 0.0 0.0 0.0 0.0 0.0 0.0 0.3 3.2 2.7 0.2 0.0 0.0 0.2 0.0 0.0 0.0 0.0 0.0 0.0 0.0 0.0 0.0 0.0 0.0 0.0 0.0 0.0 0.0
nan nan nan nan nan nan nan nan nan nan nan nan nan nan nan nan 0.0 0.5 0.4 0.0 nan 0.0 1.1 0.5 0.0 0.0 0.0 0.0 0.0 0.0 0.0 0.4 0.7 1.7 3.6 1.6 0.1 0.0 0.2 0.0 0.0 0.0 0.0 0.0 0.0 0.0 0.0 0.0 0.0 0.0 0.0 0.0 0.0 0.0
nan nan nan nan nan nan nan nan nan nan nan nan nan nan nan nan nan 0.0 0.0 nan nan 0.2 0.3 0.7 0.2 0.1 0.0 0.5 0.4 0.0 0.1 0.1 0.4 1.1 1.6 3.2 0.8 0.2 1.5 0.0 0.0 0.0 0.0 0.0 0.0 0.0 0.0 0.0 0.0 0.0 0.0 0.0 0.0 0.0
nan nan nan nan nan nan nan nan nan nan nan nan nan nan 0.0 0.0 0.5 0.0 nan nan 0.0 0.3 2.0 0.3 0.2 1.3 0.0 0.7 0.0 0.1 0.1 1.3 0.2 0.6 0.7 1.2 2.1 2.5 0.7 0.0 0.0 0.0 0.0 0.0 0.0 0.0 0.0 0.0 0.0 0.0 0.0 0.0 0.0 0.0
nan nan nan nan nan nan nan nan nan nan nan nan 0.1 0.4 5.5 0.0 nan nan 0.0 1.3 1.3 0.4 0.3 0.2 0.0 0.1 0.0 0.0 0.3 0.3 0.3 0.3 0.9 0.3 0.0 0.9 2.6 0.9 0.6 0.2 0.0 0.0 0.0 0.0 0.0 0.0 0.0 0.0 0.0 0.0 0.0 0.0 0.0 0.0
nan nan nan nan nan nan nan nan nan nan nan 0.2 3.4 1.5 0.0 nan 0.1 1.6 5.9 3.9 1.2 0.6 0.0 0.0 0.0 0.0 0.0 0.3 0.5 0.0 0.7 0.6 1.5 0.0 0.5 0.5 0.6 0.4 0.0 0.0 0.0 0.0 0.0 0.0 0.0 0.0 0.0 0.0 0.0 0.0 0.0 0.0 0.0 0.0
nan nan nan nan nan nan nan nan nan 0.0 0.1 0.1 0.2 0.0 0.0 1.2 4.1 4.1 3.1 1.1 0.4 0.0 0.0 0.0 0.0 0.0 0.0 0.0 0.1 0.8 0.6 1.1 0.1 0.2 1.7 0.3 0.1 0.0 0.0 0.0 0.0 0.0 0.0 0.0 0.0 0.0 0.0 0.0 0.0 0.0 0.0 0.0 0.0 0.0
nan nan nan nan nan nan nan nan nan nan nan 0.0 0.5 1.3 3.3 4.3 32.0 1.3 4.0 0.6 1.0 0.0 0.0 0.0 0.1 0.0 0.0 0.0 0.2 0.3 2.8 2.5 0.1 6.7 0.6 0.7 0.1 0.0 0.0 0.0 0.0 0.0 0.0 0.0 0.0 0.0 0.0 0.0 0.0 0.0 0.0 0.0 0.0 0.0
nan nan nan nan nan nan nan nan nan 0.0 0.5 4.0 4.0 34.7 3.1 0.5 0.5 0.0 0.0 0.0 0.0 0.0 0.0 0.0 0.2 0.4 0.1 0.2 0.2 0.3 0.2 0.8 4.1 1.6 1.4 0.7 0.0 0.0 0.0 0.0 0.0 0.0 0.0 0.0 0.0 0.0 0.0 0.0 0.0 0.0 0.0 0.0 0.0 0.0
nan nan nan nan nan nan nan nan nan 0.0 1.6 4.6 1.2 14.4 0.4 0.0 0.0 0.0 0.0 0.0 0.0 0.0 0.0 0.2 0.1 0.5 1.5 2.0 0.4 0.2 1.8 0.9 0.4 0.9 0.6 0.3 0.0 0.0 0.0 0.0 0.0 0.0 0.0 0.0 0.0 0.0 0.0 0.0 0.0 0.0 0.0 0.0 0.0 0.2
nan nan 0.0 nan nan nan nan nan 0.0 0.0 1.6 1.4 0.1 0.2 0.1 0.2 0.4 0.2 0.0 0.1 0.0 0.0 0.0 0.2 0.4 0.6 0.8 0.8 1.1 0.1 0.1 0.7 0.5 0.3 0.2 0.1 0.0 0.0 0.0 0.0 0.0 0.0 0.0 0.0 0.0 0.0 0.0 1.1 0.8 0.0 0.3 0.4 1.9 0.9
nan 0.5 nan nan nan nan nan 0.4 0.9 3.2 2.6 0.4 1.9 0.0 0.1 0.1 0.2 0.0 0.0 0.0 0.0 0.0 0.6 0.5 1.3 0.1 0.4 1.9 0.1 0.7 1.6 0.4 0.1 0.1 0.0 0.0 0.0 0.0 0.0 0.0 0.0 0.0 0.0 0.0 0.0 0.0 0.0 0.0 0.2 0.1 0.2 0.0 0.0 0.0
0.1 0.0 nan nan nan nan 0.9 1.3 3.1 3.4 1.8 0.4 3.2 0.4 0.0 0.0 0.1 0.0 0.0 0.0 0.0 0.2 0.3 0.2 0.3 0.2 0.9 0.2 1.8 0.7 0.3 0.2 0.0 0.0 0.0 0.0 0.0 0.0 0.0 0.0 0.0 0.0 0.0 0.0 0.0 0.0 0.0 0.0 0.0 0.2 0.0 0.0 0.0 0.0
0.0 0.0 nan nan 0.0 0.6 6.1 6.1 0.7 4.1 1.9 0.3 0.1 0.0 0.0 0.1 0.0 0.0 0.0 0.0 0.0 0.0 0.3 0.3 0.1 0.2 0.2 0.2 0.3 0.2 0.1 0.0 0.1 0.1 0.0 0.0 0.0 0.0 0.0 0.0 0.0 0.0 0.0 0.0 0.0 0.1 0.1 0.0 0.0 0.1 0.1 0.1 0.1 0.2
nan nan nan nan nan 1.3 2.6 4.4 0.2 0.6 1.3 0.7 0.0 0.0 0.0 0.1 0.0 0.1 0.0 0.0 0.0 0.2 0.4 0.7 0.2 0.2 0.2 0.1 0.1 0.0 0.0 0.0 0.0 0.1 0.1 0.1 0.1 0.0 0.0 0.0 0.1 0.0 0.1 0.0 0.1 0.0 0.1 0.1 0.1 0.0 0.0 0.1 0.3 0.5
nan nan nan 0.0 0.2 0.1 0.2 1.8 0.5 0.5 0.5 0.8 0.1 0.0 0.3 0.0 0.0 0.1 0.1 0.0 0.2 0.3 0.3 0.1 0.2 0.1 0.0 0.1 0.0 0.0 0.0 0.0 0.0 0.0 0.0 0.1 0.1 0.0 0.0 0.1 0.1 0.3 0.3 0.2 0.2 0.2 0.1 0.1 0.1 0.1 0.4 0.7 0.5 0.5
2.3 nan 1.1 0.0 1.2 0.7 1.8 0.1 0.5 0.3 0.8 0.8 0.2 0.2 0.4 1.2 0.8 0.3 0.0 0.2 0.3 0.2 0.1 0.1 0.1 0.1 0.1 0.0 0.1 0.0 0.0 0.0 0.0 0.0 0.0 0.0 0.1 0.1 0.2 0.2 0.2 0.3 0.3 0.3 0.2 0.3 0.3 0.3 0.3 0.3 0.7 1.8 0.8 0.8
nan 0.2 1.1 1.0 4.4 7.9 18.1 0.2 0.3 0.2 1.8 1.5 0.5 0.5 0.7 0.4 0.2 0.0 1.2 0.2 0.2 0.2 0.1 0.0 0.0 0.0 0.0 0.0 0.0 0.0 0.0 0.0 0.1 0.1 0.1 0.0 0.0 0.1 0.1 0.3 0.2 0.4 0.4 0.4 0.3 0.3 0.4 0.2 0.6 2.7 1.6 1.8 2.4 7.7
nan 4.0 10.3 5.7 2.8 17.9 0.4 3.9 0.7 1.1 0.6 1.2 1.0 1.5 0.1 0.3 0.1 0.7 1.3 0.5 0.2 0.0 0.0 0.0 0.0 0.1 0.1 0.0 0.2 0.2 0.2 0.1 0.1 0.1 0.1 0.1 0.1 0.2 0.2 0.2 0.2 0.2 0.2 0.3 0.5 0.6 0.6 1.7 2.1 1.3 4.6 10.2 12.9 12.8
16.6 27.0 5.5 33.7 1.1 6.6 4.1 1.2 0.3 1.1 4.9 3.0 2.0 2.1 5.8 0.4 4.2 2.4 0.4 0.8 0.2 0.2 0.1 0.1 0.1 0.1 0.1 0.2 0.2 0.2 0.0 0.1 0.2 0.2 0.1 0.1 0.3 0.4 0.4 0.4 0.5 0.4 0.4 0.8 2.0 3.0 3.8 4.3 4.8 4.9 3.1 12.8 5.5 5.8
33.9 9.2 14.7 2.2 7.5 3.4 1.9 5.6 6.0 5.4 3.7 5.9 2.1 0.8 0.4 2.2 3.0 4.7 0.9 0.6 0.5 0.3 1.3 0.6 0.4 0.2 0.2 0.2 0.3 0.2 0.2 0.1 0.1 0.2 0.2 0.1 0.3 0.5 1.2 2.4 1.8 1.2 0.6 0.6 1.9 6.8 4.9 6.1 7.6 4.0 8.4 4.0 5.9 10.5
29.7 11.3 0.3 0.0 0.0 0.0 3.7 2.5 0.3 1.7 4.5 6.7 2.6 3.5 4.7 12.5 7.6 1.0 0.3 0.2 0.2 0.2 0.1 0.1 0.1 0.2 0.2 0.2 0.2 0.2 0.1 0.1 0.1 0.2 0.2 0.2 0.3 0.2 0.5 3.6 2.5 1.1 0.8 1.4 2.3 7.7 9.2 9.1 10.2 7.0 9.7 8.6 9.1 10.9
2.0 0.3 9.2 1.1 3.5 0.2 3.8 2.3 3.0 3.9 0.8 0.4 2.8 6.0 7.1 5.7 3.7 1.0 0.4 0.2 0.2 0.1 0.1 0.1 0.1 0.1 0.1 0.2 0.2 0.3 0.3 0.4 0.4 0.3 0.2 0.2 0.3 0.5 0.6 1.0 1.2 5.0 1.9 5.7 6.2 9.2 7.4 11.4 14.3 13.9 12.8 13.6 16.4 10.9
2.9 0.6 0.7 13.7 3.6 2.0 4.7 4.7 3.3 0.9 0.2 0.7 6.7 4.0 1.8 0.5 0.9 0.4 0.3 0.2 0.2 0.2 0.3 0.5 0.4 0.4 0.3 0.3 0.5 0.4 0.5 0.7 0.6 4.9 4.9 5.8 5.1 3.6 1.3 2.0 3.3 4.7 4.2 5.6 6.8 7.2 8.0 11.1 13.6 14.5 11.0 16.5 14.0 14.7
2.9 0.3 3.0 5.1 10.1 4.6 5.9 3.3 3.6 1.9 0.2 0.5 0.4 0.7 0.6 0.8 0.6 0.2 0.3 0.3 0.4 2.6 5.1 3.0 3.0 2.3 8.5 5.5 5.3 3.0 1.6 2.7 2.2 5.5 11.2 8.7 4.9 4.9 6.2 9.1 9.3 8.7 7.8 15.9 12.5 7.8 9.8 13.7 13.0 20.6 19.7 19.6 18.4 21.1
0.4 1.5 3.9 1.2 5.8 9.0 7.1 6.6 6.4 2.2 2.2 6.5 5.5 8.3 4.9 1.7 1.0 0.4 0.3 0.5 0.6 9.2 10.2 13.4 12.4 11.4 10.4 6.8 11.9 13.5 10.7 9.3 3.2 1.7 2.1 4.6 6.3 9.3 10.7 10.7 11.2 12.7 14.1 14.2 18.3 15.8 18.5 21.2 20.2 20.0 16.2 13.2 16.8 17.8
2.9 7.5 11.9 7.1 8.5 12.8 3.6 13.6 10.2 9.4 11.9 11.7 14.5 9.6 11.0 9.3 7.0 2.0 1.2 3.1 6.7 9.6 4.2 6.2 14.1 5.2 3.9 3.7 7.7 5.8 6.6 3.9 4.2 4.5 4.6 7.4 9.6 12.4 9.0 9.2 18.6 16.3 13.9 15.9 14.7 17.8 13.8 19.1 21.3 22.1 19.5 17.3 16.7 15.6
16.2 8.8 5.8 6.4 16.4 6.9 7.3 9.7 2.2 11.3 9.2 13.5 12.6 10.5 8.8 7.9 7.6 3.7 0.7 2.0 4.1 5.9 5.2 7.6 7.9 10.5 5.7 5.5 5.1 5.8 6.5 4.9 6.7 9.0 8.0 8.4 8.7 9.2 12.0 16.4 18.8 16.5 10.6 15.0 15.7 15.5 12.9 10.4 16.0 16.5 19.6 24.4 22.3 19.6
Water_Equivalent
nan nan nan nan nan nan nan nan nan nan nan nan nan nan nan nan nan 0.00 0.00 0.00 0.05 0.43 0.01 0.00 0.00 0.00 0.00 0.00 0.39 0.00 0.71 0.08 0.20 0.37 0.17 0.13 0.05 0.00 0.00 0.00 0.00 0.01 0.07 0.21 0.07 0.12 0.32 0.00 0.00 0.00 0.00 0.00 0.00 0.00
nan nan nan nan nan nan nan nan nan nan nan nan nan nan nan nan nan nan 0.00 0.00 0.00 0.08 0.03 0.00 0.00 0.00 0.00 0.00 0.02 0.04 0.10 0.16 0.15 0.30 0.04 0.02 0.09 0.03 0.00 0.05 0.00 0.05 0.00 0.01 0.01 0.01 0.00 0.00 0.00 0.00 0.00 0.00 0.00 0.00
nan nan nan nan nan nan nan nan nan nan nan nan nan nan nan nan nan nan 0.00 0.00 0.01 0.14 0.01 0.00 0.00 0.00 0.00 0.00 0.00 0.71 0.01 0.00 0.00 0.00 0.28 0.00 0.05 0.00 0.04 0.00 0.00 0.00 0.00 0.00 0.00 0.00 0.00 0.00 0.00 0.00 0.00 0.00 0.00 0.00
nan nan nan nan nan nan nan nan nan nan nan nan nan nan nan nan nan nan 0.00 0.00 0.00 0.02 0.43 0.01 0.00 0.00 0.00 0.00 0.00 0.00 0.00 0.00 0.00 0.04 0.21 0.08 0.06 0.00 0.00 0.00 0.00 0.00 0.00 0.00 0.01 0.00 0.00 0.00 0.00 0.00 0.00 0.00 0.00 0.00
nan nan nan nan nan nan nan nan nan nan nan nan nan nan nan nan nan nan 0.00 0.00 0.00 0.11 0.23 0.06 0.00 0.00 0.00 0.00 0.00 0.00 0.00 0.00 0.36 0.44 0.32 0.17 0.00 0.02 0.00 0.00 0.00 0.00 0.00 0.00 0.00 0.00 0.00 0.00 0.00 0.00 0.00 0.00 0.00 0.00
nan nan nan nan nan nan nan nan nan nan nan nan nan nan nan nan nan 0.00 0.49 0.00 0.00 0.00 0.37 0.19 0.00 0.00 0.00 0.00 0.00 0.00 0.00 0.00 0.09 0.91 0.56 0.04 0.00 0.01 0.07 0.00 0.00 0.00 0.00 0.00 0.00 0.00 0.00 0.00 0.00 0.00 0.00 0.00 0.00 0.00
nan nan nan nan nan nan nan nan nan nan nan nan nan nan nan nan 0.00 0.14 0.09 0.00 nan 0.00 0.25 0.10 0.00 0.00 0.00 0.00 0.00 0.00 0.00 0.07 0.14 0.37 0.79 0.31 0.02 0.01 0.06 0.01 0.00 0.00 0.00 0.00 0.00 0.00 0.00 0.00 0.00 0.00 0.00 0.00 0.00 0.00
nan nan nan nan nan nan nan nan nan nan nan nan nan nan nan nan nan 0.00 0.00 nan nan 0.04 0.06 0.22 0.07 0.02 0.00 0.11 0.10 0.00 0.03 0.03 0.09 0.21 0.30 0.57 0.15 0.04 0.39 0.00 0.00 0.00 0.00 0.00 0.00 0.00 0.00 0.00 0.00 0.00 0.00 0.00 0.00 0.00
nan nan nan nan nan nan nan nan nan nan nan nan nan nan 0.00 0.00 0.14 0.00 nan nan 0.00 0.07 0.46 0.08 0.07 0.41 0.00 0.13 0.00 0.02 0.02 0.35 0.04 0.17 0.15 0.22 0.35 0.40 0.12 0.01 0.00 0.00 0.00 0.00 0.00 0.00 0.00 0.00 0.00 0.00 0.00 0.00 0.00 0.00
nan nan nan nan nan nan nan nan nan nan nan nan 0.03 0.14 1.54 0.00 nan nan 0.01 0.35 0.34 0.13 0.09 0.07 0.00 0.05 0.01 0.00 0.08 0.08 0.09 0.09 0.26 0.09 0.01 0.20 0.39 0.15 0.10 0.04 0.00 0.00 0.00 0.00 0.00 0.00 0.00 0.00 0.00 0.00 0.00 0.00 0.00 0.00
nan nan nan nan nan nan nan nan nan nan nan 0.09 1.07 0.41 0.00 nan 0.01 0.32 1.56 0.99 0.36 0.16 0.00 0.00 0.00 0.00 0.00 0.11 0.14 0.01 0.21 0.14 0.40 0.01 0.11 0.12 0.11 0.06 0.00 0.00 0.00 0.00 0.00 0.00 0.00 0.00 0.00 0.00 0.00 0.00 0.00 0.00 0.00 0.00
nan nan nan nan nan nan nan nan nan 0.00 0.04 0.02 0.04 0.00 0.00 0.25 0.94 0.86 0.79 0.30 0.10 0.01 0.00 0.00 0.00 0.00 0.00 0.00 0.04 0.21 0.15 0.34 0.02 0.05 0.46 0.08 0.03 0.00 0.00 0.00 0.00 0.00 0.00 0.00 0.00 0.00 0.00 0.00 0.00 0.00 0.00 0.00 0.00 0.00
nan nan nan nan nan nan nan nan nan nan nan 0.00 0.15 0.27 0.80 1.13 6.73 0.27 0.81 0.16 0.30 0.00 0.00 0.00 0.06 0.00 0.00 0.00 0.08 0.10 0.68 0.71 0.03 2.14 0.15 0.15 0.01 0.00 0.00 0.00 0.00 0.00 0.00 0.00 0.00 0.00 0.00 0.00 0.00 0.00 0.00 0.00 0.00 0.00
nan nan nan nan nan nan nan nan nan 0.00 0.12 0.97 0.90 5.86 0.89 0.12 0.13 0.00 0.00 0.00 0.00 0.00 0.00 0.00 0.05 0.11 0.04 0.09 0.07 0.08 0.07 0.25 1.10 0.36 0.34 0.19 0.01 0.00 0.00 0.00 0.00 0.00 0.00 0.00 0.00 0.00 0.00 0.00 0.00 0.00 0.00 0.00 0.00 0.00
nan nan nan nan nan nan nan nan nan 0.00 0.38 0.97 0.27 2.58 0.17 0.00 0.00 0.00 0.00 0.00 0.00 0.00 0.00 0.05 0.03 0.14 0.38 0.56 0.13 0.05 0.59 0.29 0.13 0.22 0.16 0.09 0.00 0.00 0.00 0.00 0.00 0.00 0.00 0.00 0.00 0.00 0.01 0.01 0.00 0.00 0.00 0.00 0.00 0.07
nan nan 0.00 nan nan nan nan nan 0.00 0.00 0.44 0.34 0.04 0.06 0.03 0.09 0.17 0.06 0.00 0.03 0.00 0.00 0.00 0.05 0.10 0.14 0.22 0.20 0.26 0.03 0.04 0.21 0.15 0.12 0.06 0.03 0.00 0.00 0.00 0.00 0.00 0.00 0.00 0.00 0.00 0.00 0.01 0.42 0.31 0.01 0.10 0.16 0.75 0.33
nan 0.21 nan nan nan nan nan 0.15 0.30 0.83 0.59 0.07 0.77 0.01 0.05 0.04 0.06 0.00 0.00 0.00 0.00 0.01 0.19 0.16 0.34 0.01 0.11 0.42 0.02 0.16 0.38 0.14 0.05 0.04 0.00 0.00 0.00 0.00 0.00 0.00 0.00 0.00 0.00 0.00 0.00 0.00 0.00 0.01 0.08 0.02 0.08 0.00 0.00 0.00
0.05 0.00 nan nan nan nan 0.25 0.32 0.75 0.77 0.32 0.13 1.17 0.16 0.02 0.01 0.05 0.01 0.00 0.00 0.00 0.06 0.09 0.05 0.09 0.05 0.21 0.05 0.47 0.18 0.10 0.06 0.01 0.00 0.00 0.00 0.00 0.00 0.00 0.00 0.00 0.00 0.00 0.00 0.00 0.00 0.01 0.00 0.00 0.06 0.00 0.00 0.02 0.02
0.00 0.00 nan nan 0.00 0.19 1.60 1.46 0.18 0.86 0.47 0.11 0.03 0.00 0.00 0.02 0.00 0.00 0.00 0.00 0.00 0.00 0.10 0.10 0.02 0.08 0.07 0.06 0.10 0.07 0.04 0.01 0.03 0.03 0.01 0.00 0.00 0.00 0.00 0.00 0.00 0.00 0.00 0.00 0.00 0.03 0.02 0.00 0.02 0.02 0.03 0.04 0.05 0.07
nan nan nan nan nan 0.43 0.51 0.98 0.03 0.15 0.34 0.22 0.01 0.02 0.00 0.03 0.00 0.03 0.01 0.00 0.00 0.06 0.12 0.20 0.08 0.06 0.07 0.03 0.03 0.01 0.01 0.00 0.00 0.03 0.04 0.03 0.03 0.00 0.00 0.01 0.04 0.01 0.03 0.00 0.03 0.01 0.04 0.03 0.02 0.00 0.00 0.04 0.09 0.16
nan nan nan 0.00 0.08 0.04 0.07 0.38 0.11 0.13 0.17 0.24 0.04 0.02 0.10 0.00 0.02 0.05 0.03 0.00 0.09 0.09 0.10 0.03 0.09 0.04 0.01 0.05 0.00 0.00 0.00 0.00 0.00 0.00 0.01 0.05 0.03 0.00 0.01 0.02 0.04 0.09 0.09 0.07 0.08 0.08 0.04 0.05 0.03 0.02 0.14 0.26 0.17 0.17
0.81 nan 0.35 0.02 0.35 0.20 0.56 0.01 0.12 0.08 0.24 0.22 0.06 0.07 0.13 0.48 0.34 0.11 0.00 0.09 0.09 0.07 0.03 0.04 0.05 0.02 0.02 0.01 0.02 0.00 0.00 0.00 0.00 0.00 0.00 0.00 0.04 0.03 0.05 0.05 0.06 0.09 0.09 0.09 0.06 0.10 0.09 0.07 0.09 0.10 0.22 0.64 0.21 0.23
nan 0.07 0.31 0.27 1.06 1.24 2.36 0.05 0.07 0.07 0.43 0.36 0.12 0.12 0.20 0.15 0.07 0.00 0.37 0.07 0.08 0.06 0.03 0.01 0.00 0.00 0.01 0.00 0.00 0.00 0.00 0.00 0.02 0.03 0.02 0.00 0.00 0.03 0.04 0.08 0.07 0.11 0.12 0.11 0.07 0.08 0.11 0.05 0.17 0.88 0.48 0.56 0.73 2.52
nan 1.02 2.51 1.38 0.60 2.97 0.12 1.19 0.20 0.29 0.16 0.31 0.24 0.36 0.04 0.09 0.02 0.20 0.37 0.15 0.08 0.01 0.02 0.00 0.01 0.05 0.05 0.00 0.06 0.06 0.06 0.02 0.03 0.03 0.02 0.03 0.05 0.08 0.06 0.07 0.06 0.07 0.06 0.09 0.14 0.15 0.17 0.56 0.67 0.33 1.53 3.68 4.69 4.12
3.97 5.61 1.70 4.30 0.37 2.00 1.28 0.37 0.07 0.27 1.18 0.89 0.53 0.58 1.66 0.13 1.10 0.65 0.11 0.20 0.08 0.06 0.05 0.04 0.04 0.03 0.04 0.07 0.07 0.06 0.00 0.04 0.06 0.08 0.06 0.04 0.09 0.11 0.11 0.10 0.13 0.11 0.11 0.26 0.67 1.07 1.33 1.48 1.67 1.69 0.99 4.51 1.55 1.76
5.90 3.27 3.12 0.78 2.29 1.03 0.53 1.39 1.50 1.52 0.94 1.45 0.63 0.24 0.15 0.65 0.77 1.09 0.24 0.19 0.17 0.09 0.51 0.24 0.14 0.07 0.06 0.07 0.10 0.07 0.06 0.04 0.05 0.07 0.09 0.06 0.10 0.17 0.37 0.63 0.47 0.33 0.16 0.18 0.59 2.38 1.62 2.10 2.65 1.21 2.72 1.23 1.90 3.71
4.57 3.31 0.10 0.00 0.01 0.01 1.12 0.91 0.09 0.54 1.09 1.59 0.69 1.00 1.31 2.80 1.84 0.26 0.09 0.08 0.07 0.07 0.05 0.04 0.05 0.06 0.07 0.07 0.08 0.07 0.05 0.05 0.03 0.09 0.07 0.07 0.10 0.09 0.16 1.10 0.66 0.30 0.21 0.40 0.75 3.00 3.37 3.35 3.65 2.24 3.01 3.00 3.25 3.73
0.53 0.09 1.56 0.43 1.19 0.07 1.05 0.64 0.84 1.04 0.23 0.13 0.74 1.45 1.81 1.45 0.78 0.27 0.13 0.09 0.09 0.05 0.04 0.03 0.03 0.03 0.05 0.07 0.08 0.09 0.10 0.13 0.14 0.11 0.09 0.09 0.11 0.17 0.17 0.27 0.34 1.64 0.59 2.05 2.32 3.32 2.47 4.05 4.54 4.50 3.89 4.00 4.53 3.55
0.79 0.21 0.25 1.88 0.83 0.55 1.15 1.26 0.87 0.25 0.08 0.25 2.00 0.97 0.48 0.15 0.29 0.14 0.09 0.07 0.08 0.08 0.10 0.17 0.15 0.15 0.12 0.11 0.17 0.14 0.19 0.25 0.19 1.21 1.39 1.40 1.35 1.04 0.39 0.61 0.98 1.51 1.34 1.81 2.23 2.32 2.43 3.19 3.77 4.13 3.59 4.68 4.17 4.51
0.72 0.12 0.88 1.16 1.41 0.90 1.58 0.88 1.06 0.59 0.07 0.15 0.12 0.17 0.16 0.23 0.21 0.09 0.10 0.09 0.15 0.95 2.04 1.20 1.17 0.90 3.05 1.87 1.54 0.94 0.58 1.08 0.85 1.94 3.03 2.13 1.36 1.43 1.86 2.76 2.81 2.65 2.46 5.27 3.32 1.81 3.03 3.62 3.86 5.25 4.50 3.98 4.14 4.47
0.14 0.59 1.24 0.37 1.40 2.59 2.10 2.22 2.16 0.70 0.74 2.16 1.88 2.45 1.33 0.44 0.32 0.13 0.12 0.18 0.23 3.60 4.01 4.76 4.63 4.57 3.74 2.20 4.05 3.89 2.60 3.46 1.06 0.51 0.59 1.38 1.88 2.87 3.30 3.13 3.21 3.66 4.00 3.87 4.89 3.64 3.66 4.38 4.48 4.37 3.14 2.71 2.88 2.86
1.00 2.62 2.58 1.44 2.14 3.95 1.19 4.62 3.35 2.91 3.87 3.53 4.29 3.12 3.59 2.82 1.66 0.57 0.40 1.13 2.38 3.32 1.40 2.26 4.88 1.59 1.39 1.26 2.94 2.07 2.16 1.14 1.17 1.27 1.33 2.10 2.79 3.53 2.27 2.16 4.78 4.53 3.63 4.06 3.37 3.69 2.99 3.87 3.92 4.12 3.51 3.13 2.88 2.54
4.92 2.80 1.70 1.68 4.46 2.01 2.22 3.11 0.68 3.21 2.51 3.48 3.64 3.04 2.72 2.15 1.61 1.10 0.23 0.74 1.56 2.18 1.85 3.01 3.18 4.17 2.03 1.92 1.57 1.76 2.08 1.45 2.15 2.96 2.63 2.78 2.86 2.87 2.80 4.07 4.85 3.79 2.28 3.16 3.44 3.12 2.76 2.08 2.37 2.79 2.96 3.40 3.16 2.85
SL_Ratio
nan nan nan nan nan nan nan nan nan nan nan nan nan nan nan nan nan nan nan nan 3.7 3.8 5.0 nan nan nan nan 5.0 5.0 5.0 3.9 2.7 3.6 4.2 4.0 3.6 3.0 3.3 7.5 nan nan 5.7 3.1 2.9 2.8 2.9 3.4 nan nan nan nan nan nan nan
nan nan nan nan nan nan nan nan nan nan nan nan nan nan nan nan nan nan 3.8 nan nan 2.7 4.2 nan nan nan nan nan 4.6 3.9 5.2 4.3 2.9 2.5 2.7 2.7 2.9 2.5 0.0 3.6 nan 3.1 2.9 2.8 2.5 3.1 nan nan nan nan nan nan nan nan
nan nan nan nan nan nan nan nan nan nan nan nan nan nan nan nan nan nan nan nan 2.5 2.9 4.3 5.0 nan nan nan nan nan 3.7 3.8 5.0 3.3 3.3 3.5 5.0 5.7 nan 2.7 2.5 nan nan nan 2.9 2.5 nan nan nan nan nan nan nan nan nan
nan nan nan nan nan nan nan nan nan nan nan nan nan nan nan nan nan nan nan nan nan 2.6 4.6 4.1 nan nan nan nan nan nan nan 5.0 3.0 4.7 4.1 3.6 3.0 nan nan nan nan nan nan nan 2.5 nan nan nan nan nan nan nan nan nan
nan nan nan nan nan nan nan nan nan nan nan nan nan nan nan nan nan nan nan nan nan 4.3 4.8 3.8 nan nan nan nan nan nan nan nan 3.6 4.7 4.6 3.7 nan 3.6 nan nan nan nan nan nan nan nan nan nan nan nan nan nan nan nan
nan nan nan nan nan nan nan nan nan nan nan nan nan nan nan nan nan nan 2.7 nan nan nan 4.5 3.9 5.0 nan nan nan nan nan nan nan 3.9 3.6 4.8 5.3 nan 2.7 3.1 nan nan nan nan nan nan nan nan nan nan nan nan nan nan nan
nan nan nan nan nan nan nan nan nan nan nan nan nan nan nan nan nan 3.4 5.1 nan nan nan 4.3 4.5 2.5 nan nan nan nan nan nan 5.1 5.3 4.7 4.5 5.3 5.4 2.7 3.4 3.8 nan nan nan nan nan nan nan nan nan nan nan nan nan nan
nan nan nan nan nan nan nan nan nan nan nan nan nan nan nan nan nan 5.0 nan nan nan 4.2 4.2 3.3 2.5 5.4 nan 5.0 4.5 nan 3.1 3.0 4.2 5.4 5.5 5.6 5.4 4.8 3.8 nan nan nan nan nan nan nan nan nan nan nan nan nan nan nan
nan nan nan nan nan nan nan nan nan nan nan nan nan nan nan nan 3.7 nan nan nan nan 4.1 4.3 3.1 2.8 3.1 nan 5.5 5.0 3.4 3.0 3.8 3.7 3.5 5.0 5.7 6.0 6.3 5.6 4.6 nan nan nan nan nan nan nan nan nan nan nan nan nan nan
nan nan nan nan nan nan nan nan nan nan nan nan 2.5 2.8 3.6 2.5 nan nan 3.9 3.7 3.6 3.2 2.8 3.4 nan 3.0 3.8 nan 3.5 3.3 2.9 3.3 3.3 3.2 5.0 4.6 6.6 5.9 5.8 5.5 nan nan nan nan nan nan nan nan nan nan nan nan nan nan
nan nan nan nan nan nan nan nan nan nan nan 2.6 3.1 3.6 nan nan 4.8 5.0 3.8 4.0 3.3 3.7 nan nan nan nan nan 3.1 3.4 4.1 3.5 4.0 3.8 4.6 4.5 4.4 5.9 6.1 5.0 nan nan nan nan nan nan nan nan nan nan nan nan nan nan nan
nan nan nan nan nan nan nan nan nan nan 2.5 5.4 4.6 nan 0.0 4.7 4.4 4.7 3.9 3.8 3.9 4.0 nan nan nan nan nan nan 3.4 3.7 3.8 3.3 5.0 4.0 3.6 3.4 2.9 nan nan nan nan nan nan nan nan nan nan nan nan nan nan nan nan nan
nan nan nan nan nan nan nan nan nan nan nan nan 3.4 4.9 4.1 3.8 4.8 4.9 4.9 3.8 3.5 2.5 nan nan 2.5 nan nan nan 2.6 2.8 4.1 3.5 3.4 3.1 4.4 4.5 3.8 nan nan nan nan nan nan nan nan nan nan nan nan nan nan nan nan nan
nan nan nan nan nan nan nan nan nan nan 4.0 4.1 4.4 5.9 3.4 4.4 3.8 0.0 nan nan nan nan nan nan 3.0 3.6 2.6 2.6 2.5 3.5 3.2 3.3 3.7 4.4 3.9 3.6 3.7 nan nan nan nan 0.0 nan nan nan nan nan nan nan nan nan nan nan nan
nan nan nan nan nan nan nan nan nan nan 4.2 4.7 4.5 5.6 2.6 3.0 0.0 nan nan nan nan nan nan 3.6 3.6 3.7 3.8 3.6 2.9 3.1 3.0 3.2 3.2 3.9 3.9 3.6 nan nan nan nan nan nan 3.3 nan nan nan 2.5 2.7 nan 3.3 0.0 nan nan 2.7
nan nan nan nan nan nan nan nan nan 3.0 3.7 4.1 3.0 3.1 3.0 2.5 2.5 2.5 nan 3.6 nan nan nan 3.6 4.1 4.0 3.8 4.0 4.2 3.6 3.7 3.2 3.4 3.0 2.8 2.5 nan nan nan nan nan nan nan nan nan nan 2.7 2.7 2.6 2.7 2.6 2.6 2.6 2.6
nan 2.5 nan nan nan nan nan 3.0 3.1 3.8 4.4 5.2 2.5 2.7 2.6 2.9 2.5 2.5 nan nan nan 3.1 3.1 3.4 3.8 4.3 4.0 4.5 4.3 4.2 4.1 3.2 2.7 2.7 nan nan nan nan nan nan nan nan nan nan nan nan 3.0 2.5 2.8 2.8 3.2 3.3 nan 2.5
3.0 nan nan nan nan nan 3.6 4.0 4.1 4.4 5.7 2.7 2.7 2.5 2.4 2.3 2.6 2.3 nan nan 2.5 3.1 3.3 3.8 3.4 4.1 4.2 4.1 3.9 3.8 3.0 2.7 2.6 nan nan nan nan nan nan nan nan nan nan nan 5.0 2.5 2.5 2.9 5.0 2.5 nan 5.0 2.7 2.7
3.8 nan nan nan nan 3.1 3.8 4.2 4.0 4.7 4.2 2.5 2.5 3.3 nan 2.6 nan nan nan nan nan nan 3.0 3.1 3.5 2.9 2.6 2.8 3.2 3.1 2.9 2.7 2.5 2.4 2.5 nan nan nan nan nan nan nan nan nan nan 2.6 2.6 nan 2.5 2.6 2.5 2.5 2.6 2.5
nan nan nan nan nan 3.1 5.1 4.5 4.4 4.1 3.7 3.2 3.3 2.4 2.5 2.5 5.0 2.6 2.6 2.5 nan 2.7 3.4 3.4 2.8 2.6 2.9 2.6 2.5 2.4 2.2 1.7 nan 2.5 2.5 2.6 2.4 nan nan 2.7 2.8 2.8 2.6 3.3 2.4 2.4 2.5 2.5 2.4 2.1 5.0 2.6 2.9 3.0
nan nan nan nan 2.5 2.5 3.0 4.7 4.4 3.6 3.2 3.2 2.5 3.0 2.7 nan 2.5 2.5 2.6 nan 2.6 3.0 3.0 2.5 2.5 2.5 2.5 2.5 nan nan 0.0 nan nan nan 2.5 2.6 2.4 0.0 2.7 2.7 3.2 3.6 3.8 3.3 3.1 3.0 2.6 2.7 2.5 2.4 2.5 2.5 2.7 2.9
2.8 nan 3.3 2.8 3.3 3.6 3.2 4.8 4.3 3.4 3.4 3.6 3.6 3.4 3.0 2.5 2.5 2.5 nan 2.7 3.0 2.9 2.5 2.5 2.5 2.5 2.5 2.5 2.5 nan nan nan nan nan 0.0 2.5 2.6 2.9 3.6 3.5 3.8 3.7 3.7 3.6 3.6 3.4 3.5 3.6 3.5 3.3 3.1 2.8 3.6 3.4
nan 3.3 3.7 3.7 4.1 6.3 7.7 3.1 4.2 3.5 4.3 4.2 4.2 3.8 3.3 3.1 2.9 2.5 3.2 2.9 2.9 2.5 2.6 2.7 3.0 nan 2.4 nan nan nan nan nan 2.5 2.5 2.4 3.0 nan 2.6 3.3 3.5 3.4 3.3 3.6 3.8 3.8 3.7 3.7 3.8 3.7 3.1 3.3 3.3 3.3 3.0
nan 3.9 4.1 4.1 4.6 6.0 3.6 3.3 3.6 3.9 3.9 3.8 4.0 4.0 3.3 3.0 2.7 3.2 3.6 3.2 2.9 2.5 2.5 nan 2.7 2.5 2.5 nan 2.6 2.6 2.5 2.5 2.6 2.5 2.4 2.5 2.9 3.2 3.3 3.2 3.3 3.3 3.3 3.4 3.8 3.7 3.6 2.9 3.1 4.0 3.0 2.8 2.8 3.1
4.2 4.8 3.3 7.9 3.1 3.3 3.2 3.3 4.3 4.1 4.1 3.4 3.8 3.6 3.5 3.2 3.8 3.7 3.7 3.8 2.9 2.7 2.6 2.5 2.5 2.6 2.8 2.8 3.0 2.6 5.0 2.5 2.6 2.8 2.5 2.5 3.1 3.3 3.5 3.6 3.4 3.3 3.4 3.2 3.0 2.8 2.9 2.9 2.9 2.9 3.1 2.8 3.5 3.3
5.7 2.8 4.7 2.9 3.3 3.3 3.5 4.0 4.0 3.6 3.9 4.1 3.4 3.2 2.9 3.4 3.9 4.3 3.8 3.2 2.9 2.9 2.6 2.6 2.8 2.8 2.8 2.9 3.3 3.0 2.7 2.5 2.5 2.9 2.9 2.6 2.9 2.9 3.3 3.7 3.7 3.8 3.7 3.2 3.1 2.9 3.0 2.9 2.9 3.4 3.1 3.3 3.1 2.8
6.5 3.4 2.8 nan 2.5 2.5 3.3 2.7 2.8 3.1 4.1 4.2 3.7 3.5 3.6 4.5 4.1 3.8 3.0 2.8 2.8 2.5 2.5 2.5 2.5 2.6 2.7 2.7 2.9 2.6 2.5 2.5 2.6 2.7 2.5 2.6 3.0 2.8 2.8 3.3 3.8 3.7 3.8 3.4 3.0 2.6 2.7 2.7 2.8 3.1 3.2 2.9 2.8 2.9
3.8 3.2 5.9 2.6 2.9 2.5 3.6 3.6 3.6 3.7 3.3 3.2 3.8 4.1 3.9 3.9 4.7 3.6 2.9 2.6 2.5 2.5 2.5 2.5 2.6 2.6 2.5 2.7 2.7 2.9 2.8 2.8 2.8 2.8 2.6 2.6 3.0 3.1 3.3 3.6 3.6 3.0 3.2 2.8 2.7 2.8 3.0 2.8 3.1 3.1 3.3 3.4 3.6 3.1
3.7 2.7 2.8 7.3 4.4 3.6 4.1 3.7 3.7 3.4 2.7 2.8 3.4 4.1 3.7 3.5 3.1 3.0 2.9 2.6 2.5 2.5 2.7 2.7 2.8 2.5 2.6 2.8 2.9 2.9 2.9 2.8 3.1 4.0 3.6 4.1 3.7 3.5 3.5 3.3 3.3 3.1 3.1 3.1 3.0 3.1 3.3 3.5 3.6 3.5 3.1 3.5 3.4 3.3
4.0 2.6 3.4 4.4 7.2 5.2 3.8 3.7 3.4 3.2 3.1 3.1 3.4 3.9 3.9 3.6 3.1 2.5 2.8 2.7 2.8 2.8 2.5 2.5 2.5 2.5 2.8 2.9 3.4 3.1 2.7 2.5 2.6 2.8 3.7 4.1 3.6 3.4 3.3 3.3 3.3 3.3 3.2 3.0 3.8 4.3 3.2 3.8 3.4 3.9 4.4 4.9 4.5 4.7
2.9 2.6 3.2 3.2 4.1 3.5 3.4 3.0 2.9 3.1 3.0 3.0 2.9 3.4 3.7 3.8 3.3 3.0 2.9 2.7 2.8 2.6 2.5 2.8 2.7 2.5 2.8 3.1 2.9 3.5 4.1 2.7 3.0 3.3 3.5 3.4 3.4 3.2 3.2 3.4 3.5 3.5 3.5 3.7 3.7 4.3 5.1 4.8 4.5 4.6 5.2 4.9 5.8 6.2
2.9 2.9 4.6 5.0 4.0 3.2 3.0 2.9 3.1 3.2 3.1 3.3 3.4 3.1 3.1 3.3 4.2 3.5 3.0 2.8 2.8 2.9 3.0 2.7 2.9 3.3 2.8 2.9 2.6 2.8 3.0 3.4 3.5 3.5 3.4 3.5 3.5 3.5 4.0 4.3 3.9 3.6 3.8 3.9 4.4 4.8 4.6 4.9 5.4 5.4 5.5 5.5 5.8 6.1
3.3 3.1 3.4 3.8 3.7 3.4 3.3 3.1 3.3 3.5 3.7 3.9 3.5 3.5 3.2 3.7 4.7 3.4 3.1 2.7 2.6 2.7 2.8 2.5 2.5 2.5 2.8 2.9 3.3 3.3 3.1 3.4 3.1 3.0 3.0 3.0 3.0 3.2 4.3 4.0 3.9 4.4 4.7 4.8 4.6 5.0 4.7 5.0 6.8 5.9 6.6 7.2 7.1 6.9